Temp
84 73 69 77 78 77 75 71 69 74 77 69 69 73 79 82 85 82 80 80 81 83 87 88 90 91 89 86 84 85 80 83 82 78 76 76 76 81 78 78 80 78 78 79
77 72 83 88 85 78 72 71 65 65 70 71 69 62 67 69 71 78 83 82 83 83 84 86 86 87 86 85 85 81 80 83 84 81 79 80 78 76 72 72 75 79 79 80
74 80 91 87 80 76 74 69 69 63 65 69 67 56 57 67 74 76 85 87 87 85 83 84 84 85 87 85 84 82 81 83 82 80 80 80 79 75 72 72 73 76 79 80
77 88 88 85 79 83 70 81 79 76 65 60 78 55 60 66 68 77 85 84 86 87 87 87 86 86 87 86 87 84 81 81 82 80 80 77 74 72 72 73 71 70 78 80
76 82 82 81 83 86 79 87 83 72 67 71 71 59 63 65 68 76 80 87 88 89 90 88 89 89 89 88 87 86 82 80 81 80 81 78 76 77 72 68 68 69 70 76
80 89 84 83 89 87 89 82 79 78 71 59 66 61 57 62 68 77 81 83 89 89 91 91 91 92 91 89 88 86 82 81 80 80 79 78 78 77 72 69 68 68 70 72
77 80 85 88 78 83 78 68 56 56 56 55 66 62 61 70 77 83 85 82 87 90 91 90 90 90 90 88 87 85 83 80 81 81 79 79 78 77 73 71 71 70 70 70
63 64 78 87 77 71 73 70 57 51 53 59 66 59 70 77 84 82 84 81 88 90 92 91 91 91 90 89 87 86 83 82 82 82 79 79 80 76 77 71 68 70 69 68
63 68 85 87 89 82 73 66 73 63 66 60 64 65 78 78 80 80 81 84 86 91 92 92 92 91 91 89 88 86 83 82 82 81 80 79 79 79 77 71 70 69 68 69
76 63 78 85 85 83 76 78 62 62 50 50 60 62 65 70 76 80 82 83 86 91 92 93 93 92 92 91 89 86 85 82 82 82 81 81 79 80 72 70 69 69 69 69
79 69 75 76 71 72 69 65 65 65 61 53 51 58 76 74 80 82 87 79 90 92 91 93 94 93 93 92 87 85 83 82 81 82 82 79 80 79 74 69 69 69 69 69
80 71 64 71 82 85 78 72 69 57 57 59 59 63 85 84 86 90 86 92 92 94 93 94 94 92 92 90 84 83 84 83 82 83 82 79 80 81 80 71 69 69 68 67
78 66 58 65 72 72 74 74 70 69 65 60 55 64 81 84 88 87 88 89 91 93 90 93 93 92 92 88 83 83 84 83 83 82 83 82 81 81 81 77 72 71 72 70
81 70 65 60 66 74 70 76 75 67 58 59 62 65 79 85 87 87 88 87 90 92 90 92 92 91 90 86 83 83 84 84 84 83 83 81 81 79 81 82 80 74 72 72
78 67 66 73 79 83 81 79 78 70 69 61 68 71 80 79 81 83 89 88 86 88 89 88 92 88 87 84 83 84 84 84 85 82 80 80 82 81 80 80 80 80 78 77
77 66 65 67 78 81 80 82 80 78 76 70 72 67 82 83 81 83 85 88 85 86 90 89 91 85 87 84 83 83 83 83 83 82 82 81 82 83 81 78 78 79 78 78
70 67 63 59 72 74 69 77 77 76 78 77 68 75 81 81 86 83 84 86 87 86 87 87 88 90 89 87 85 83 83 83 83 84 84 83 81 82 82 79 78 79 78 78
72 71 65 61 62 54 73 83 85 80 83 82 80 82 86 82 83 83 85 82 82 86 85 83 90 93 89 88 86 85 83 82 82 82 83 82 81 81 81 81 78 78 77 77
66 63 58 57 59 67 77 81 80 76 74 86 81 83 86 85 84 80 86 86 83 82 83 87 92 93 88 87 85 84 83 81 80 80 82 81 82 81 80 80 78 79 77 76
61 58 54 55 53 53 72 83 86 82 66 82 84 82 82 81 69 72 82 86 85 86 86 86 94 93 88 87 85 84 82 79 78 80 81 81 82 81 81 80 79 79 76 77
62 56 55 53 54 63 77 85 88 68 65 80 83 81 79 75 76 78 80 83 84 84 84 86 91 94 88 88 86 84 83 79 80 80 79 80 81 81 81 80 80 78 77 76
58 57 53 59 49 54 80 76 71 75 78 82 82 82 81 81 81 81 82 81 82 84 86 86 87 87 90 88 85 83 82 82 82 81 81 80 79 82 81 80 80 78 78 75
62 66 65 66 62 68 77 73 82 83 79 80 77 83 83 83 83 83 81 83 83 85 84 86 86 87 89 87 86 82 81 82 81 80 79 79 80 81 81 80 78 78 77 77
66 69 62 67 69 74 83 80 86 85 84 85 84 87 85 81 84 83 83 83 83 84 84 85 84 81 80 84 83 81 81 82 81 79 78 79 79 80 80 80 80 80 79 77
65 66 61 65 68 71 75 78 83 80 82 83 90 87 85 85 84 83 82 81 82 82 82 82 79 78 78 82 81 81 81 81 80 79 79 79 80 78 78 66 71 78 80 77
62 57 56 56 63 59 65 81 87 86 85 87 87 85 86 86 84 83 81 81 81 80 80 78 77 78 78 79 78 78 80 81 80 79 80 80 81 78 67 63 58 53 51 51
MSLP
1000.03 1000.55 1000.78 1001.13 1002.29 1003.13 1005.16 1006.26 1006.78 1006.53 1007.40 1008.83 1008.06 1007.28 1006.91 1006.45 1006.11 1006.35 1006.71 1007.02 1007.14 1007.37 1007.39 1007.85 1008.35 1009.37 1010.21 1010.92 1011.63 1012.26 1012.88 1013.43 1014.14 1014.68 1015.16 1015.43 1015.63 1015.28 1015.57 1015.79 1015.92 1016.41 1016.76 1017.04
1000.41 1000.20 999.76 1000.25 1001.18 1002.58 1004.22 1006.46 1007.69 1009.28 1008.06 1008.78 1008.48 1010.62 1008.51 1008.61 1008.21 1008.09 1006.24 1006.62 1006.68 1007.04 1007.21 1007.76 1008.24 1008.93 1009.93 1010.65 1011.25 1012.06 1012.55 1013.16 1013.76 1014.22 1014.58 1014.72 1015.03 1015.58 1016.23 1016.47 1016.59 1016.25 1016.39 1016.57
1000.08 999.50 998.95 999.94 1000.41 1001.38 1002.15 1004.34 1006.02 1007.38 1008.02 1007.82 1008.89 1012.39 1010.37 1009.13 1006.87 1007.16 1006.07 1005.62 1005.65 1005.96 1006.75 1007.47 1008.03 1008.64 1009.61 1010.41 1011.07 1011.76 1012.34 1012.74 1013.44 1013.91 1014.17 1014.55 1015.27 1015.90 1016.17 1016.22 1016.24 1016.21 1016.18 1016.27
999.48 998.77 998.47 998.92 999.38 999.35 999.84 1001.91 1003.70 1005.86 1007.18 1006.30 1006.15 1010.27 1010.59 1008.09 1007.47 1006.34 1004.87 1004.55 1004.71 1004.97 1005.55 1006.58 1007.42 1008.10 1009.09 1010.03 1010.70 1011.23 1011.84 1012.46 1013.07 1013.53 1013.94 1014.65 1015.16 1015.89 1015.77 1016.54 1017.06 1017.08 1016.26 1016.14
999.07 998.34 998.03 997.82 997.53 997.79 997.93 999.16 1000.82 1003.72 1003.52 1004.33 1004.71 1006.32 1008.01 1008.58 1007.14 1004.62 1003.62 1003.21 1003.24 1003.53 1004.34 1005.48 1006.27 1007.07 1008.11 1009.25 1010.07 1010.59 1011.26 1012.17 1012.80 1013.32 1013.73 1014.37 1014.90 1015.23 1015.90 1016.35 1016.72 1016.53 1016.66 1016.52
998.62 997.52 997.30 997.02 996.68 996.72 997.28 998.30 999.43 1000.35 1001.65 1003.08 1003.81 1005.37 1006.68 1005.86 1004.15 1002.75 1002.41 1002.23 1002.45 1002.67 1003.30 1004.24 1005.24 1006.07 1007.16 1008.40 1009.31 1010.11 1010.84 1011.65 1012.36 1013.01 1013.53 1013.99 1014.41 1015.06 1016.19 1016.71 1016.45 1017.08 1017.52 1017.72
998.74 997.85 996.85 996.71 996.85 996.69 997.24 998.67 999.98 1001.07 1001.97 1003.60 1003.13 1004.92 1005.89 1003.91 1001.95 1000.75 1000.82 1001.42 1001.34 1001.85 1002.47 1003.25 1004.31 1005.32 1006.33 1007.52 1008.58 1009.53 1010.31 1011.12 1011.72 1012.46 1013.13 1013.64 1014.25 1014.76 1015.47 1016.25 1016.82 1017.38 1017.86 1017.09
999.10 998.24 997.11 996.41 996.73 996.83 997.49 998.58 1000.02 1000.91 1001.90 1003.32 1003.46 1004.51 1003.06 1001.72 1000.52 1000.80 1000.81 1001.33 1001.40 1001.04 1001.54 1002.32 1003.17 1004.20 1005.35 1006.60 1007.66 1008.70 1009.74 1010.53 1011.25 1011.81 1012.64 1013.25 1013.90 1014.62 1014.96 1015.88 1016.52 1017.41 1017.15 1016.77
998.48 997.74 996.36 995.90 995.89 996.55 997.55 998.19 999.14 1000.15 1000.96 1002.37 1003.09 1003.00 1002.01 1000.84 1000.83 1000.52 1000.54 1001.24 1001.07 1000.36 1000.76 1001.43 1002.38 1003.30 1004.62 1005.80 1006.76 1007.79 1008.98 1010.01 1010.74 1011.34 1012.17 1012.93 1013.52 1014.23 1014.98 1015.76 1016.26 1016.36 1016.10 1016.24
997.24 997.61 996.27 995.58 995.41 996.18 996.96 998.01 999.19 999.99 1001.47 1002.33 1002.23 1001.39 1000.74 1000.90 1000.03 1000.35 1001.02 1001.22 1000.16 1000.05 1000.13 1000.97 1001.76 1002.57 1003.82 1004.97 1006.03 1007.21 1008.22 1009.13 1009.95 1010.93 1011.66 1012.47 1013.24 1013.88 1014.86 1015.48 1015.78 1015.75 1015.24 1015.72
996.37 997.01 996.15 995.55 995.41 996.13 997.04 997.86 998.87 1000.07 1001.07 1001.75 1001.59 1001.09 998.80 999.29 999.01 999.19 999.09 1001.06 998.84 998.54 999.25 1000.24 1001.18 1001.98 1003.13 1004.22 1005.63 1006.83 1007.95 1008.96 1009.84 1010.56 1011.34 1012.15 1013.06 1013.64 1014.57 1014.81 1015.07 1015.12 1015.33 1015.83
995.58 996.08 996.55 995.84 994.80 995.18 996.09 997.20 998.23 999.91 1000.83 1000.80 1000.48 1000.25 998.11 997.63 997.53 997.11 997.29 997.07 997.16 997.61 998.43 999.36 1000.62 1001.68 1002.81 1004.04 1005.45 1006.47 1007.48 1008.41 1009.09 1009.81 1010.78 1011.60 1012.47 1013.22 1013.96 1014.70 1014.82 1014.96 1015.68 1015.69
994.75 995.57 996.45 996.13 995.80 995.05 995.72 996.27 997.17 998.19 998.99 999.97 1000.10 998.85 997.37 997.45 996.83 996.70 996.17 995.95 996.51 997.40 998.32 998.95 1000.06 1001.28 1002.46 1003.76 1005.12 1006.19 1006.93 1007.83 1008.72 1009.51 1010.32 1011.03 1011.76 1012.54 1013.06 1014.03 1014.70 1014.68 1014.96 1015.24
994.10 995.33 996.38 996.41 995.68 995.11 995.28 995.62 996.27 997.20 998.54 998.80 998.38 997.52 997.37 996.97 996.49 995.27 995.58 996.04 996.21 997.12 998.00 998.67 999.75 1000.96 1002.08 1003.32 1004.53 1005.68 1006.52 1007.36 1008.07 1009.04 1010.04 1010.73 1011.22 1011.79 1012.30 1012.60 1013.35 1013.88 1014.19 1014.51
994.42 995.44 995.92 995.87 995.43 994.94 994.86 994.80 995.28 996.25 996.68 997.70 997.18 996.61 996.12 996.07 995.60 995.57 995.62 996.17 996.80 997.45 998.20 998.86 999.71 1000.95 1002.03 1003.17 1004.19 1005.09 1005.86 1006.70 1007.55 1008.62 1009.29 1009.94 1010.49 1011.00 1011.59 1012.18 1012.53 1012.94 1013.60 1013.88
995.28 995.92 996.17 996.18 995.65 995.03 994.21 993.64 994.12 994.68 995.28 995.68 995.77 995.70 995.08 995.09 995.41 995.40 995.77 996.36 997.04 997.59 997.93 998.48 999.17 1000.34 1001.49 1002.66 1003.59 1004.54 1005.31 1006.17 1007.08 1007.92 1008.79 1009.16 1009.93 1010.68 1011.11 1011.70 1012.24 1012.66 1013.03 1013.22
997.15 996.87 997.08 997.05 996.28 995.35 994.54 993.22 993.28 993.69 993.98 994.37 994.87 994.89 994.63 995.00 995.18 995.50 995.77 996.16 996.36 996.89 997.51 998.09 998.57 999.62 1000.48 1001.74 1002.83 1003.88 1004.65 1005.64 1006.43 1007.13 1007.92 1008.38 1009.25 1010.12 1010.56 1011.18 1011.76 1012.20 1012.57 1012.96
997.97 998.37 997.77 998.03 997.25 996.08 994.30 992.87 992.55 992.88 993.12 993.36 993.79 994.08 994.22 994.82 995.59 995.89 996.01 996.53 996.84 996.80 997.17 997.74 998.28 998.98 1000.07 1001.00 1002.11 1003.03 1004.12 1005.00 1005.95 1006.63 1007.30 1008.12 1009.01 1009.72 1010.19 1010.80 1011.30 1011.78 1012.27 1012.86
998.31 999.49 999.48 999.00 998.01 996.34 994.44 993.11 992.48 992.52 992.96 992.84 993.57 994.23 994.33 995.06 995.37 996.32 996.16 996.08 996.71 996.86 996.93 997.11 997.65 998.53 999.79 1000.81 1001.77 1002.71 1003.64 1004.43 1005.47 1006.33 1006.91 1007.53 1008.32 1009.24 1009.93 1010.50 1010.95 1011.29 1011.90 1012.54
999.49 1000.07 1000.71 1000.72 999.48 997.80 995.28 993.78 992.33 991.85 993.49 993.02 993.29 994.26 994.74 995.29 996.69 996.86 996.67 996.33 996.48 996.92 997.10 997.35 997.20 998.11 999.18 1000.29 1001.23 1002.26 1003.31 1004.46 1005.48 1006.07 1006.59 1007.07 1007.77 1008.57 1009.28 1009.96 1010.52 1011.12 1011.74 1012.15
1000.86 1001.07 1001.07 1001.26 1000.13 998.18 995.99 994.51 992.57 993.23 995.18 993.82 993.80 994.48 995.01 995.82 996.41 996.57 996.62 996.76 996.82 996.41 996.77 996.81 997.12 997.51 998.49 999.65 1000.79 1001.82 1002.95 1003.97 1004.58 1005.48 1006.23 1006.89 1007.33 1008.02 1008.77 1009.49 1010.12 1010.75 1011.43 1012.13
1000.80 1001.47 1001.51 1000.55 999.87 999.32 996.52 995.85 994.44 994.85 994.66 994.39 994.46 994.62 995.16 995.57 996.01 996.46 996.51 996.94 996.70 996.32 996.52 996.35 996.61 997.14 998.12 999.17 1000.46 1001.68 1002.52 1003.28 1004.27 1005.14 1005.94 1006.53 1007.08 1007.63 1008.35 1009.06 1009.77 1010.44 1010.96 1011.85
999.59 1000.01 999.99 999.65 997.79 997.11 996.07 997.36 996.11 994.87 995.46 995.48 995.34 994.94 994.95 995.41 995.76 996.17 996.57 996.51 996.70 996.63 996.93 996.96 996.84 997.25 998.06 999.09 1000.06 1001.17 1002.13 1003.01 1004.00 1004.93 1005.73 1006.34 1006.91 1007.39 1007.94 1008.63 1009.53 1010.31 1010.77 1011.50
1000.17 999.52 999.24 998.41 997.01 995.60 994.73 995.86 995.03 995.23 996.00 995.88 995.34 994.92 995.63 995.44 995.58 996.16 996.36 996.45 996.73 997.04 997.30 997.46 997.50 997.92 998.71 999.41 1000.22 1001.08 1002.02 1002.97 1003.86 1004.61 1005.39 1006.16 1006.79 1007.34 1007.91 1008.44 1009.55 1010.14 1010.51 1011.06
1002.09 1001.12 1001.09 999.25 998.73 998.17 996.29 995.86 994.33 994.63 995.27 995.79 995.90 995.74 995.48 995.58 995.85 996.18 996.55 996.91 997.21 997.56 997.71 997.86 998.27 998.89 999.40 999.89 1000.71 1001.42 1002.15 1002.92 1003.74 1004.32 1005.00 1005.83 1006.59 1007.33 1008.11 1009.31 1010.06 1010.41 1009.79 1010.23
1003.63 1003.87 1003.48 1002.70 1002.50 1002.51 999.62 995.94 993.88 994.55 995.21 995.50 995.75 995.66 995.78 995.97 996.16 996.49 997.10 997.35 997.63 998.04 998.29 998.71 999.14 999.57 1000.08 1000.39 1001.01 1001.54 1002.02 1002.74 1003.40 1004.10 1004.71 1005.38 1006.26 1007.16 1008.30 1009.24 1010.39 1010.66 1010.78 1011.12
Wind_Speed
10 4 8 11 15 15 10 9 7 8 14 18 17 8 2 4 9 10 9 9 9 9 9 10 10 17 13 17 13 14 9 13 9 4 4 3 4 4 1 2 6 6 5 5
8 11 15 15 22 19 19 11 6 10 24 13 15 2 25 24 17 13 11 13 12 9 9 11 9 9 15 15 13 9 9 12 11 6 4 3 3 2 5 3 3 3 6 6
11 14 16 16 12 10 14 22 20 17 22 18 11 1 18 17 19 15 13 16 16 15 11 14 10 9 15 16 13 9 9 13 10 8 3 2 5 4 1 2 3 3 6 6
9 17 18 9 17 13 11 25 29 23 13 9 22 8 14 16 16 15 19 17 17 17 14 17 14 11 16 15 14 12 10 9 8 8 3 7 5 4 4 3 4 6 3 5
14 14 13 14 12 14 7 25 26 32 13 6 7 7 5 7 16 8 9 19 20 20 19 21 19 16 14 18 16 14 12 10 7 7 5 5 5 4 3 5 9 11 4 8
12 11 8 9 10 6 4 6 6 6 4 4 5 8 6 4 9 7 7 8 12 20 21 20 21 19 17 18 16 15 14 14 9 8 7 7 8 6 6 2 3 4 5 8
12 12 10 8 8 8 4 5 5 6 5 2 12 10 7 12 12 11 11 9 8 22 20 19 21 19 17 21 19 16 16 14 13 11 8 8 7 7 8 5 5 7 5 2
7 11 10 13 7 5 8 9 7 6 6 5 8 9 8 19 18 11 11 7 12 22 19 20 20 20 18 22 20 20 18 16 14 13 10 7 8 6 5 8 9 7 8 7
6 13 11 15 17 9 10 6 8 4 8 3 6 5 5 8 18 17 18 9 18 14 20 22 18 18 18 20 20 20 19 15 15 13 10 8 7 7 9 12 9 7 7 7
13 7 10 14 10 7 11 8 4 4 4 5 7 7 6 10 20 15 14 17 24 16 19 19 17 18 19 19 16 19 20 18 16 12 11 9 8 7 12 9 10 9 5 3
11 7 18 5 6 12 2 4 5 3 4 3 1 6 9 9 6 3 14 19 21 19 16 18 17 15 19 16 16 18 17 15 12 11 10 9 8 8 11 9 8 8 4 6
11 7 7 11 8 11 9 11 11 7 10 4 6 4 8 14 12 17 29 13 17 20 17 19 18 14 19 15 17 18 16 15 14 12 12 9 10 10 11 11 10 8 8 6
7 3 4 11 9 3 9 9 8 8 5 8 3 6 6 10 18 14 7 13 16 18 13 17 17 15 19 15 18 17 16 15 13 11 13 11 11 10 10 16 14 12 11 10
8 3 9 8 11 6 8 9 9 7 4 6 7 5 12 19 11 6 7 8 18 18 16 16 17 15 16 16 18 17 16 15 14 12 11 10 11 8 9 9 13 13 8 8
4 6 5 9 7 9 12 12 12 10 10 8 9 9 16 8 8 4 9 8 11 14 14 13 18 12 14 15 16 18 16 15 14 12 10 11 13 10 8 9 7 8 12 9
8 5 5 8 9 14 11 7 12 10 9 6 6 2 10 11 8 8 10 13 10 14 16 13 18 16 18 18 17 16 15 14 15 15 13 13 14 12 10 8 8 8 8 8
6 3 3 8 8 10 8 8 5 6 9 9 6 9 4 5 8 8 8 13 14 13 13 13 20 20 19 19 18 17 16 14 16 17 15 13 13 13 12 9 9 10 9 7
12 11 4 6 6 6 11 7 10 8 10 10 7 4 6 10 10 11 11 9 4 8 9 10 15 18 16 18 18 16 14 15 16 16 16 13 13 13 12 11 9 7 6 7
4 2 3 3 6 8 10 10 6 8 5 8 7 8 12 11 13 8 7 9 7 6 3 12 15 16 15 16 16 17 16 15 15 15 16 14 14 14 12 12 10 7 7 5
12 7 7 5 2 3 3 6 9 5 2 4 12 10 11 10 7 4 6 6 8 6 3 3 14 16 19 17 18 18 16 13 12 13 14 12 14 15 14 12 10 6 6 6
3 4 5 4 2 7 6 13 7 8 7 7 13 10 10 7 6 4 3 5 4 4 5 8 9 17 19 19 19 19 17 16 14 11 9 11 13 14 13 11 8 8 7 6
8 5 3 2 3 8 5 24 4 6 5 8 9 8 8 7 4 5 6 3 4 7 8 9 8 9 18 19 17 16 16 13 13 12 12 12 11 11 10 12 9 9 9 9
9 7 7 12 10 10 8 11 15 6 7 5 4 6 4 4 6 7 4 5 3 6 5 5 4 10 14 17 17 16 13 14 13 12 10 11 12 11 12 12 11 10 10 9
14 13 4 7 4 9 21 14 8 12 7 1 2 6 5 4 2 7 6 6 5 4 3 3 7 8 9 12 12 10 13 13 13 13 11 10 12 11 11 9 10 10 10 10
6 8 11 7 15 20 3 9 13 17 14 7 4 4 5 6 5 5 7 7 6 4 4 3 8 8 9 12 11 11 12 14 12 12 11 11 10 10 10 6 3 7 8 10
4 4 5 4 12 11 19 11 9 15 16 12 8 6 6 6 6 8 7 7 7 7 6 8 8 9 7 8 8 9 11 13 12 11 10 10 10 9 7 7 6 15 12 12
Wind_Direction
248 232 228 215 176 168 169 175 229 337 326 338 297 293 4 263 175 166 169 175 180 177 182 159 154 164 164 160 164 181 139 162 155 156 157 171 185 216 163 104 142 156 175 195
252 233 242 146 158 179 184 162 100 8 332 302 292 22 32 322 298 296 174 180 181 181 170 159 153 144 148 161 166 161 146 152 163 166 177 179 157 98 91 95 41 175 178 185
213 241 241 173 167 199 186 174 172 155 213 265 244 215 135 246 263 281 218 189 183 177 165 162 159 160 155 162 165 165 157 162 167 180 164 114 74 76 150 132 193 216 194 197
232 239 254 218 196 210 237 183 186 214 185 199 196 136 223 198 251 238 200 185 187 176 164 164 166 171 159 167 166 169 152 166 170 173 147 144 144 164 228 84 67 353 264 201
244 248 256 260 255 187 239 152 195 178 185 168 192 104 159 198 226 221 207 192 180 177 174 167 174 173 168 164 170 172 154 163 170 172 175 164 153 168 115 119 125 213 292 276
249 265 246 248 267 276 290 319 287 236 219 288 208 110 297 244 212 240 187 200 196 174 175 173 176 178 174 169 168 170 165 175 170 172 172 174 171 135 119 160 117 48 21 357
276 266 275 274 297 283 230 316 319 340 348 139 83 67 270 263 246 233 216 212 233 179 175 175 176 181 174 170 172 173 175 175 177 175 166 174 182 135 140 137 101 103 93 129
223 283 254 260 232 205 226 197 165 234 254 147 116 155 233 224 238 230 258 282 279 174 174 180 179 176 175 170 172 174 178 180 180 174 168 169 170 147 155 125 121 148 152 160
237 243 243 214 229 173 262 280 238 231 276 38 146 236 319 203 244 258 249 228 251 178 177 179 177 169 174 171 174 172 176 178 178 174 159 160 164 149 122 133 154 175 164 164
248 284 268 257 205 228 167 225 317 319 247 267 212 174 189 200 239 227 246 245 246 197 174 177 177 166 171 171 168 168 173 174 176 165 164 161 158 164 127 149 154 184 201 142
223 189 274 329 168 192 167 224 264 190 166 180 220 273 205 187 258 204 284 192 216 173 167 171 174 161 169 165 154 163 168 166 167 165 165 150 159 165 138 153 167 190 153 153
211 190 250 246 202 174 186 195 195 137 284 220 174 231 190 174 210 164 216 215 173 169 169 165 168 158 165 156 154 160 165 167 171 171 162 164 159 168 151 163 187 192 164 198
211 198 292 320 320 207 188 224 204 206 196 240 163 242 186 171 211 217 207 175 164 165 164 159 158 158 163 155 157 160 166 169 169 158 167 172 168 173 179 166 182 196 179 185
93 179 176 216 225 185 204 208 222 192 145 233 223 239 164 200 210 312 327 191 152 162 166 158 158 163 159 153 156 165 168 166 164 160 165 165 172 176 179 187 169 182 187 177
131 199 246 248 278 273 252 202 207 200 222 169 250 233 179 204 218 179 105 134 126 156 161 153 160 156 155 157 160 167 167 165 157 156 162 169 172 175 172 184 183 164 174 181
306 247 248 290 305 295 291 224 204 201 215 238 235 251 187 213 198 147 136 141 141 160 170 165 156 154 161 165 168 169 169 163 155 168 164 170 169 178 178 168 168 165 168 173
289 250 230 264 277 292 312 205 239 221 198 187 215 227 185 116 112 117 145 160 166 168 176 167 162 166 168 170 168 174 172 158 163 173 176 178 165 174 175 168 167 179 181 158
280 304 195 236 284 278 250 246 198 217 195 205 222 200 127 144 84 74 66 72 60 188 166 157 166 170 168 166 172 167 164 165 165 172 177 173 170 170 166 172 178 176 159 164
209 109 336 104 244 250 285 286 216 173 244 170 167 108 62 83 80 34 57 76 78 44 226 164 165 160 154 161 161 166 171 170 163 170 177 170 167 167 167 175 181 173 157 161
86 96 111 16 70 284 350 325 342 126 38 109 104 98 86 85 73 257 32 24 59 77 40 4 158 155 157 164 161 166 173 163 169 175 177 166 163 166 173 174 173 169 165 158
20 338 141 203 209 278 306 316 3 91 209 59 77 84 94 99 177 157 126 28 358 39 2 336 188 164 169 163 168 176 169 176 176 164 155 160 164 165 166 168 166 157 151 147
175 128 308 264 100 256 336 346 68 195 54 82 87 88 99 130 189 137 143 115 13 25 355 328 164 150 161 164 167 172 180 167 162 160 167 164 161 165 160 165 166 161 153 147
253 224 197 201 209 197 140 214 274 94 87 48 101 116 113 102 176 177 124 97 51 51 357 8 68 132 152 162 167 169 167 154 157 156 160 163 164 170 168 169 162 163 158 159
350 29 334 8 294 174 164 224 204 93 71 19 150 103 115 98 29 138 120 96 74 52 36 17 66 96 117 149 150 144 141 149 154 160 160 165 171 178 171 165 166 170 171 166
280 323 332 279 26 343 326 227 136 126 123 339 260 124 102 96 36 124 111 112 114 83 36 69 96 102 106 117 122 134 141 149 159 164 166 172 178 183 163 86 144 183 177 175
21 12 358 297 344 301 265 249 130 139 155 167 166 106 92 105 92 97 96 98 92 92 67 67 89 102 113 114 125 141 146 157 163 166 171 176 180 178 131 134 110 56 62 17